BSAT-3C (JCSAT-110R)

Last updated on Sun Apr 12 2026 00:02:52 GMT+0000 (Coordinated Universal Time)

1 37776U 11041B 26101.47119509 -.00000349 00000+0 00000+0 0 9998 2 37776 0.0452 53.4727 0000204 281.8701 143.9253 1.00274617 49800
UTC large
Height (km)
Speed (km/s)
/
Latitude / Longitude
Inclination (degrees)
Orbital Period (minutes)
Azimuth
Elevation
Range (km)
Doppler Factor

Next 0 passes for location: London (51.5072 / 0.1276)

Sorry there are no passes over London.
BSAT-3C (JCSAT-110R)